Track STARLINK-2338 now! 10-day predictions STARLINK-2338 is classified as:
1 47793U 21018G 22224.54102863 .00004850 00000-0 34423-3 0 9999 2 47793 53.0548 330.6702 0000999 75.4886 284.6214 15.06401521 80159